Regional Weather Roundup
Issued by NWS

Home | Current Version | Previous Version | Text Only | Print | Product List | Glossary On
Versions: 1 2 3 4 5 6 7 8 9 10 11 12 13 14 15 16 17 18 19 20 21 22 23 24 25 26 27 28 29 30 31 32 33 34 35 36 37 38 39 40 41 42 43 44 45 46 47 48 49 50
000
ASUS43 KMPX 212001
RWRMN
WEATHER ROUNDUP FOR MINNESOTA
NATIONAL WEATHER SERVICE TWIN CITIES/CHANHASSEN MN
200 PM CST SUN JAN 21 2018


NOTE: "FAIR" INDICATES FEW OR NO CLOUDS BELOW 12,000 FEET WITH NO
SIGNIFICANT WEATHER AND/OR OBSTRUCTIONS TO VISIBILITY. N/A MEANS
CURRENT SKY AND/OR WEATHER CONDITIONS ARE NOT AVAILABLE.

MNZ060>063-068>070-212100-
   Twin Cities Metro

CITY           SKY/WX    TMP DP  RH WIND       PRES   REMARKS
TWIN CITIES    CLOUDY    38  31  76 N8        29.94F
ST PAUL        CLOUDY    37  30  75 N8        29.95F
CRYSTAL        CLOUDY    37  27  67 N6        29.94F
BLAINE         CLOUDY    37  30  75 N6        29.95F
LAKEVILLE      CLOUDY    39  30  70 N5        29.93S
EDEN PRAIRIE   CLOUDY    39  29  67 N7        29.93F
SOUTH ST PAUL  CLOUDY    39  29  68 N6        29.93F
LAKE ELMO      CLOUDY    37  30  75 N7        29.95F
$$
MNZ001>005-007-008-013>017-022>024-027-028-212100-
   Northwest Minnesota

CITY           SKY/WX    TMP DP  RH WIND       PRES   REMARKS
BEMIDJI        CLOUDY    24  23  97 N3        30.01F FOG
HALLOCK        CLOUDY    23  21  93 N3        30.08F
ROSEAU         CLOUDY    25  21  86 NE5       30.05F WCI  19
WARROAD        CLOUDY    27  21  80 NW3       30.05F
CROOKSTON      FAIR      25  25 100 N5        30.07F FOG     WCI  19
FOSSTON        CLOUDY    23  21  93 N6        30.03F WCI  16
DETROIT LAKES  CLOUDY    28  28 100 CALM      30.02F
MOORHEAD       CLOUDY    25  21  86 N6        30.07S WCI  18
PARK RAPIDS    FAIR      28  24  85 NW9       29.99F WCI  19
MAHNOMEN       CLOUDY    26  25  98 N9        30.02F WCI  16
$$
MNZ006-009>011-018-025>026-212100-
   North Central Minnesota

CITY           SKY/WX    TMP DP  RH WIND       PRES   REMARKS
BAUDETTE       CLOUDY    25  24  96 NW6       30.03S FOG     WCI  18
FLAG ISLAND    CLOUDY    25  21  86 NW6       30.05S WCI  18
INTL FALLS     FOG       25  23  92 CALM      30.02S VSB 1/4
WASKISH        FOG       23  21  93 CALM      30.03F VSB 1/2
BIG FORK       CLOUDY    27  25  93 CALM      30.01R FOG
LONGVILLE      FAIR      28  25  86 N5        30.00S WCI  23
GRAND RAPIDS   CLOUDY    28  26  92 NW6       30.01S WCI  22
CRANE LAKE     CLOUDY    21  21 100 CALM      30.04S
ORR            CLOUDY    25  21  86 CALM      29.98S
COOK           CLOUDY    25  25 100 N3        30.00S
WALKER         CLOUDY    24  21  89 N3        30.01S
$$
MNZ012-019>021-037-212100-
   Northeast Minnesota

CITY           SKY/WX    TMP DP  RH WIND       PRES   REMARKS
DULUTH         FAIR      34  27  75 N6        29.96S WCI  29
HIBBING        FAIR      28  25  88 NW8       29.98S WCI  20
EVELETH        FAIR      26  24  91 NE7       29.99F WCI  18
DULUTH HARBOR  PTSUNNY   30  28  93 E5        30.01R FOG     WCI  25
TWO HARBORS    FAIR      37  30  75 E5        29.97R
SILVER BAY     PTSUNNY   30  28  93 E5        29.97S WCI  25
GRAND MARAIS     N/A     30  27  88 N3        30.03S
G MARAIS ARPRT FOG       27  23  86 CALM      29.97S VSB 1
$$
MNZ029>031-032-039>041-046>048-054>057-064-212100-
   West Central Minnesota

CITY           SKY/WX    TMP DP  RH WIND       PRES   REMARKS
FERGUS FALLS   FAIR      30  27  86 N7        30.01S WCI  23
WHEATON        CLOUDY    30  25  80 NW10      30.04F WCI  21
MORRIS         CLOUDY    34  28  80 NW10      29.98F WCI  26
ALEXANDRIA     CLOUDY    34  28  79 N7        29.99F WCI  28
ELBOW LAKE     FAIR      32  29  87 W7        30.01S WCI  26
WADENA         FAIR      30  27  86 N3        29.99F
GLENWOOD       FAIR      36  30  80 CALM      29.98F
APPLETON       CLOUDY    34  28  80 W5        30.00F WCI  30
BENSON         CLOUDY    36  30  80 N7        30.00F
ORTONVILLE     CLOUDY    30  25  80 NW7       30.01S WCI  23
MADISON        LGT SNOW  36  30  80 NW12      30.01S
WILLMAR        FAIR      36  30  80 N14       29.99F
$$
MNZ033>034-036-042>043-049>051-058-059-212100-
   Central Minnesota

CITY           SKY/WX    TMP DP  RH WIND       PRES   REMARKS
ST CLOUD       CLOUDY    36  29  75 N5        29.97F
SAUK CENTRE      N/A     35  28  77 NW5       29.98F WCI  31
PAYNESVILLE    CLOUDY    36  32  85 N3        29.97F
AITKIN         FAIR      30  25  80 CALM      29.98S
PINE RIVER     FAIR      28  25  86 N3        30.03S
BRAINERD       FAIR      32  26  78 N7        29.99S WCI  26
STAPLES        FAIR      30  27  86 NW5       29.99S WCI  25
LONG PRAIRIE   FAIR      32  28  86 NW3       29.98F
LITTLE FALLS   CLOUDY    34  25  69 NW3       29.99F
LITCHFIELD     CLOUDY    37  30  75 N3        29.96F
BUFFALO        CLOUDY    36  29  76 N5        29.97F
MAPLE LAKE     CLOUDY    37  31  81 MISG      29.97F
HUTCHINSON     CLOUDY    37  31  81 N8        29.97S
$$
MNZ037-044-045-052-053-212100-
   East Central Minnesota

CITY           SKY/WX    TMP DP  RH WIND       PRES   REMARKS
PRINCETON      FAIR      37  28  70 N5        29.97F
MORA           FAIR      34  28  80 N5        29.99S WCI  30
CAMBRIDGE        N/A     37  27  65 NW3       29.97S
RUSH CITY      CLOUDY    35  28  76 N3        29.98R
MOOSE LAKE     CLOUDY    34  28  80 NW5       29.96S WCI  30
CLOQUET        FAIR      34  25  69 NW6       29.97R WCI  29
MCGREGOR       FAIR      32  28  86 N5        29.99S WCI  27
$$
MNZ071>073-080-081-089-090-097-098-212100-
   Southwest Minnesota

CITY           SKY/WX    TMP DP  RH WIND       PRES   REMARKS
MONTEVIDEO     LGT SNOW  34  30  86 N14       29.98F WCI  24
GRANITE FALLS  CLOUDY    37  32  84 N8        29.99F
CANBY          FLURRIES  34  32  93 NW14      29.98F WCI  24
MARSHALL       CLOUDY    34  30  85 N14       29.96F WCI  25
REDWOOD FALLS  CLOUDY    37  30  75 N10       29.95F
OLIVIA         MOSUNNY   36  32  87 N7        29.96F
PIPESTONE      CLOUDY    34  28  80 NE12G17   29.90F WCI  25
WINDOM         SUNNY     43  23  45 N16       29.89F
WORTHINGTON    SUNNY     40  30  67 N16       29.87F
JACKSON        CLOUDY    39  30  70 NE16      29.87F
TRACY          CLOUDY    37  32  83 N12       29.93F
SLAYTON        CLOUDY    37  32  83 N17       29.91F
$$
MNZ065>067-074>077-082>085-091>093-212100-
   South Central Minnesota

CITY           SKY/WX    TMP DP  RH WIND       PRES   REMARKS
MANKATO        PTSUNNY   40  32  73 N15       29.91F
NEW ULM        CLOUDY    41  28  60 N8        29.91F
ST JAMES       MOSUNNY   43  32  65 N15       29.91F
FAIRMONT       CLOUDY    38  32  79 N8        29.89F
FARIBAULT      CLOUDY    39  30  70 N8        29.91F
OWATONNA       FAIR      41  32  70 N10       29.88F
WASECA         FAIR      39  32  75 N10       29.90F
ALBERT LEA     CLOUDY    37  32  81 NE7       29.86F
$$
MNZ078>079-086>088-094>096-212100-
   Southeast Minnesota

CITY           SKY/WX    TMP DP  RH WIND       PRES   REMARKS
ROCHESTER      FAIR      37  31  78 NE8       29.87F
RED WING       CLOUDY    43  27  52 CALM      29.91F
STANTON        CLOUDY    38  32  79 N8        29.91F
DODGE CENTER   FAIR      37  30  75 N8        29.87F
WINONA         FAIR      39  32  75 CALM      29.88F
PRESTON        CLOUDY    37  31  82 N9        29.86F
$$
ABBREVIATIONS USED IN REMARKS
   TC - TEMPERATURES IN CELSIUS
  WCI - WIND CHILL INDEX
   HX - HEAT INDEX
  VSB - VISIBILITY
$$




USA.gov is the U.S. government's official web portal to all federal, state and local government web resources and services.